| time (UTC) | temp C | wind direction | speed KPH | gust KPH | rain 1hr cm | rain 24hr cm | rain mn cm | humidity % | barometer mb |
| 20260504081515 | 8 | 214 | 3.2 | 4.8 | 0.00 | 0.00 | 0.00 | 68 | 1018.9 |
| 20260504080516 | 8 | 179 | 1.6 | 3.2 | 0.00 | 0.00 | 0.00 | 69 | 1018.9 |
| 20260504050520 | 5 | 215 | 1.6 | 4.8 | 0.00 | 0.00 | 0.00 | 76 | 1019.6 |
| 20260504045523 | 5 | 0.0 | 0.0 | 0.00 | 0.00 | 0.00 | 77 | 1019.7 | |
| 20260504044518 | 5 | 0.0 | 0.0 | 0.00 | 0.00 | 0.00 | 77 | 1019.8 | |
| 20260504043525 | 5 | 0.0 | 0.0 | 0.00 | 0.00 | 0.00 | 76 | 1019.8 | |
| 20260504042526 | 6 | 0.0 | 0.0 | 0.00 | 0.00 | 0.00 | 75 | 1019.7 | |
| 20260504041528 | 6 | 0.0 | 0.0 | 0.00 | 0.00 | 0.00 | 74 | 1019.7 | |
| 20260504040529 | 6 | 0.0 | 0.0 | 0.00 | 0.00 | 0.00 | 73 | 1019.7 | |
| 20260504035530 | 6 | 0.0 | 0.0 | 0.00 | 0.00 | 0.00 | 73 | 1019.6 | |
| 20260504034533 | 6 | 0.0 | 0.0 | 0.00 | 0.00 | 0.00 | 73 | 1019.5 | |
| 20260504033516 | 6 | 0.0 | 0.0 | 0.00 | 0.00 | 0.00 | 72 | 1019.5 | |
| 20260504032518 | 6 | 0.0 | 0.0 | 0.00 | 0.00 | 0.00 | 72 | 1019.5 | |
| 20260504031519 | 6 | 0.0 | 0.0 | 0.00 | 0.00 | 0.00 | 72 | 1019.5 | |
| 20260504030521 | 6 | 0.0 | 0.0 | 0.00 | 0.00 | 0.00 | 71 | 1019.5 | |
| 20260504025523 | 6 | 0.0 | 0.0 | 0.00 | 0.00 | 0.00 | 73 | 1019.5 | |
| 20260504024524 | 6 | 158 | 6.4 | 6.4 | 0.00 | 0.00 | 0.00 | 73 | 1019.4 |
| 20260504023620 | 7 | 0.0 | 0.0 | 0.00 | 0.00 | 0.00 | 70 | 1019.3 | |
| 20260504022515 | 7 | 0.0 | 0.0 | 0.00 | 0.00 | 0.00 | 69 | 1019.2 | |
| 20260504021529 | 7 | 0.0 | 0.0 | 0.00 | 0.00 | 0.00 | 68 | 1019.1 | |
| 20260504020531 | 7 | 0.0 | 0.0 | 0.00 | 0.00 | 0.00 | 68 | 1018.9 | |
| 20260504015514 | 8 | 0.0 | 0.0 | 0.00 | 0.00 | 0.00 | 66 | 1018.8 | |
| 20260504014516 | 8 | 0.0 | 0.0 | 0.00 | 0.00 | 0.00 | 63 | 1018.8 | |
| 20260504013517 | 9 | 0.0 | 0.0 | 0.00 | 0.00 | 0.00 | 62 | 1018.5 | |
| 20260504012519 | 10 | 0.0 | 0.0 | 0.00 | 0.00 | 0.00 | 59 | 1018.5 | |
| 20260504011521 | 9 | 0.0 | 0.0 | 0.00 | 0.00 | 0.00 | 56 | 1018.5 | |
| 20260504005524 | 11 | 0.0 | 0.0 | 0.00 | 0.00 | 0.00 | 51 | 1018.5 | |
| 20260504004525 | 11 | 0.0 | 0.0 | 0.00 | 0.00 | 0.00 | 49 | 1018.5 | |
| 20260504003527 | 12 | 0.0 | 0.0 | 0.00 | 0.00 | 0.00 | 45 | 1018.5 | |
| 20260504002523 | 13 | 270 | 1.6 | 3.2 | 0.00 | 0.00 | 0.00 | 43 | 1018.5 |
| 20260504000531 | 14 | 250 | 3.2 | 4.8 | 0.00 | 0.00 | 0.00 | 41 | 1018.3 |
| 20260503235515 | 15 | 238 | 4.8 | 6.4 | 0.00 | 0.00 | 0.00 | 40 | 1018.3 |
| 20260503234516 | 15 | 255 | 8.0 | 9.7 | 0.00 | 0.00 | 0.00 | 39 | 1018.2 |
| 20260503233518 | 16 | 244 | 9.7 | 12.9 | 0.00 | 0.00 | 0.00 | 38 | 1018.2 |
| 20260503232519 | 16 | 253 | 9.7 | 14.5 | 0.00 | 0.00 | 0.00 | 37 | 1018.0 |
| 20260503231521 | 17 | 253 | 8.0 | 11.3 | 0.00 | 0.00 | 0.00 | 36 | 1018.0 |
| 20260503230522 | 17 | 264 | 11.3 | 20.9 | 0.00 | 0.00 | 0.00 | 36 | 1018.0 |
| 20260503225524 | 17 | 256 | 11.3 | 16.1 | 0.00 | 0.00 | 0.00 | 36 | 1018.0 |
| 20260503224526 | 18 | 230 | 9.7 | 12.9 | 0.00 | 0.00 | 0.00 | 35 | 1018.0 |
| 20260503223527 | 18 | 253 | 11.3 | 16.1 | 0.00 | 0.00 | 0.00 | 35 | 1018.0 |
| 20260503222529 | 18 | 267 | 9.7 | 14.5 | 0.00 | 0.00 | 0.00 | 34 | 1018.1 |
| 20260503221625 | 18 | 281 | 9.7 | 16.1 | 0.00 | 0.00 | 0.00 | 35 | 1018.2 |
| 20260503220515 | 18 | 278 | 6.4 | 11.3 | 0.00 | 0.00 | 0.00 | 36 | 1018.2 |
| 20260503215516 | 18 | 265 | 11.3 | 17.7 | 0.00 | 0.00 | 0.00 | 35 | 1018.3 |
| 20260503213520 | 18 | 259 | 9.7 | 12.9 | 0.00 | 0.00 | 0.00 | 35 | 1018.2 |
| 20260503212522 | 18 | 265 | 11.3 | 12.9 | 0.00 | 0.00 | 0.00 | 35 | 1018.3 |
| 20260503211524 | 18 | 264 | 11.3 | 16.1 | 0.00 | 0.00 | 0.00 | 35 | 1018.3 |
| 20260503210525 | 18 | 261 | 11.3 | 19.3 | 0.00 | 0.00 | 0.00 | 34 | 1018.3 |
| 20260503205527 | 18 | 240 | 9.7 | 16.1 | 0.00 | 0.00 | 0.00 | 35 | 1018.2 |
| 20260503204528 | 18 | 285 | 9.7 | 14.5 | 0.00 | 0.00 | 0.00 | 34 | 1018.3 |
| 20260503203529 | 18 | 276 | 14.5 | 25.7 | 0.00 | 0.00 | 0.00 | 35 | 1018.3 |
| 20260503202531 | 18 | 278 | 9.7 | 16.1 | 0.00 | 0.00 | 0.00 | 35 | 1018.5 |
| 20260503201532 | 18 | 237 | 8.0 | 11.3 | 0.00 | 0.00 | 0.00 | 36 | 1018.5 |
| 20260503200517 | 18 | 259 | 11.3 | 14.5 | 0.00 | 0.00 | 0.00 | 35 | 1018.6 |
| 20260503195518 | 18 | 257 | 14.5 | 25.7 | 0.00 | 0.00 | 0.00 | 35 | 1018.8 |
| 20260503194520 | 18 | 292 | 9.7 | 14.5 | 0.00 | 0.00 | 0.00 | 36 | 1019.0 |
| 20260503193516 | 18 | 260 | 14.5 | 20.9 | 0.00 | 0.00 | 0.00 | 36 | 1019.0 |
| 20260503192524 | 17 | 357 | 8.0 | 11.3 | 0.00 | 0.00 | 0.00 | 35 | 1019.3 |
| 20260503190527 | 17 | 228 | 9.7 | 14.5 | 0.00 | 0.00 | 0.00 | 36 | 1019.5 |
| 20260503185529 | 17 | 281 | 11.3 | 19.3 | 0.00 | 0.00 | 0.00 | 37 | 1019.7 |
| 20260503184531 | 17 | 333 | 8.0 | 11.3 | 0.00 | 0.00 | 0.00 | 38 | 1019.8 |
| 20260503183532 | 17 | 235 | 9.7 | 14.5 | 0.00 | 0.00 | 0.00 | 38 | 1019.9 |
| 20260503182516 | 17 | 268 | 11.3 | 16.1 | 0.00 | 0.00 | 0.00 | 36 | 1020.0 |
| 20260503181518 | 17 | 232 | 12.9 | 19.3 | 0.00 | 0.00 | 0.00 | 37 | 1020.0 |
| 20260503180519 | 17 | 245 | 9.7 | 24.1 | 0.00 | 0.00 | 0.00 | 37 | 1020.1 |
| 20260503175521 | 16 | 236 | 8.0 | 16.1 | 0.00 | 0.00 | 0.00 | 38 | 1020.3 |
| 20260503174522 | 16 | 257 | 12.9 | 19.3 | 0.00 | 0.00 | 0.00 | 38 | 1020.3 |
| 20260503173524 | 16 | 245 | 11.3 | 19.3 | 0.00 | 0.00 | 0.00 | 40 | 1020.4 |
| 20260503172520 | 16 | 265 | 12.9 | 17.7 | 0.00 | 0.00 | 0.00 | 40 | 1020.5 |
| 20260503171615 | 16 | 266 | 11.3 | 22.5 | 0.00 | 0.00 | 0.00 | 40 | 1020.5 |
| 20260503170528 | 16 | 281 | 17.7 | 29.0 | 0.00 | 0.00 | 0.00 | 40 | 1020.6 |
| 20260503150517 | 12 | 276 | 11.3 | 17.7 | 0.00 | 0.00 | 0.00 | 50 | 1021.7 |
| 20260503130524 | 9 | 263 | 8.0 | 12.9 | 0.00 | 0.00 | 0.00 | 62 | 1021.9 |